Location: Lugrin
(46.4033°N, 6.6674°E)
Time: 06:32:39
(UTC+00:00)

USA 186 - Pass Details

Date: 18 September 2020
Orbit: 261 x 425 km, 96.9° (Epoch: 12 October)

Event Time Altitude Azimuth Distance (km) Brightness Sun altitude
Exits shadow 18:49:23 17° 145° (SE) 1,077 3.4 -12.9°
Maximum altitude 18:51:30 51° 74° (ENE) 524 1.9 -13.3°
Drops below altitude 10° 18:54:38 10° 358° (N) 1,507 4.8 -13.8°
Sets 18:56:43 0° 353° (N) 2,392 5.9 -14.1°
